[[{"header":{"parameterUnit":"m.s-1","parameterCategory":1,"la1":30.2992,"la2":30.254,"lo1":-89.0895,"lo2":-89.0443,"dy":0.0025,"dx":0.0025,"nx":19,"ny":19,"refTime":"2026-05-01T09:00:00:Z","depth":0,"parameterNumber":2,"parameterNumberName":"U-component_of_WINDS"},"data":[0,0,0,-2.6449,-2.6451,-2.6526,-2.6526,-2.6638,-2.6639,0,0,0,0,0,0,0,0,0,0,0,-2.6438,-2.6439,-2.6449,-2.6451,-2.6526,-2.6526,-2.6638,-2.6639,0,0,0,0,0,0,0,0,0,0,0,-2.6438,-2.6439,-2.6441,-2.6452,-2.6526,-2.6526,-2.6638,-2.6575,0,0,0,0,0,0,0,0,0,0,-2.65,-2.6501,-2.6439,-2.6441,-2.6452,-2.6526,-2.6526,-2.6572,-2.6579,-2.6612,0,-2.6645,0,-2.6644,-2.6648,-2.6649,0,0,0,-2.6443,-2.6495,-2.6505,-2.6441,-2.6453,-2.6526,-2.649,-2.6576,-2.6584,-2.6622,-2.6646,-2.665,-2.6646,-2.6649,-2.665,-2.6867,-2.6868,0,0,-2.6439,-2.6458,-2.65,-2.6511,-2.6501,-2.6488,-2.6492,-2.6581,-2.6608,-2.6646,-2.6652,-2.6648,-2.665,-2.6651,-2.6866,-2.6867,0,0,0,-2.6433,-2.6455,-2.6463,-2.6507,-2.6519,-2.649,-2.6495,-2.6604,-2.6605,-2.6653,-2.6649,-2.6651,-2.6652,-2.6864,-2.6866,-2.6955,0,0,0,-2.643,-2.6451,-2.6461,-2.6473,-2.6518,-2.6563,-2.6518,-2.6599,-2.6608,-2.6648,-2.6651,-2.6653,-2.6863,-2.6865,-2.6949,-2.6994,0,0,0,-2.643,-2.6451,-2.6466,-2.6474,-2.6507,-2.6561,-2.6567,-2.6601,-2.6607,-2.6649,-2.6654,-2.6862,-2.6865,-2.6944,-2.6985,-2.7057,0,0,0,-2.6435,-2.6543,-2.6468,-2.6587,-2.6507,-2.6615,-2.6566,-2.6645,-2.6692,-2.6651,-2.6863,-2.6866,-2.6942,-2.698,-2.7052,-2.7122,-2.7153,0,0,-2.6582,-2.6562,-2.663,-2.6565,-2.6691,-2.6602,-2.6741,-2.6766,-2.6752,-2.6829,-2.6834,-2.6951,-2.6985,-2.7056,-2.7316,-2.7341,0,0,0,-2.6683,-2.6733,-2.6762,-2.6808,-2.6829,-2.6852,-2.6853,-2.6862,-2.6926,-2.6796,-2.6995,-2.7015,-2.7056,-2.7088,-2.7109,-2.7144,-2.6882,-2.6881,-2.6881,-2.692,-2.6896,-2.7008,-2.6994,-2.7039,-2.7039,-2.7073,-2.7084,-2.7048,-2.7095,-2.7119,-2.7279,-2.7318,-2.7334,-2.737,-2.7152,-2.7153,-2.7153,-2.7153,-2.7134,-2.7202,-2.7149,-2.724,-2.7214,-2.729,-2.7293,-2.7264,-2.7331,-2.726,-2.7295,-2.7221,-2.7362,-2.7392,-2.716,-2.7159,-2.7158,-2.7157,-2.7157,-2.7288,-2.7316,-2.7325,-2.7388,-2.7438,-2.7419,-2.7485,-2.7459,-2.7435,-2.7469,-2.7491,-2.749,-2.7486,-2.7481,-2.7482,-2.7482,-2.7483,-2.7483,-2.7483,-2.7445,-2.7451,-2.7511,-2.7542,-2.7567,-2.7597,-2.7597,-2.7621,-2.7641,-2.7616,-2.7617,-2.7576,-2.7379,-2.7331,-2.7492,-2.7491,-2.7489,-2.7489,-2.7488,-2.7674,-2.7617,-2.7709,-2.7735,-2.7768,-2.7821,-2.7785,-2.7836,-2.7852,-2.7886,-2.7836,-2.7695,-2.7672,-2.7655,-2.7616,-2.7841,-2.7841,-2.7841,-2.7841,-2.7805,-2.779,-2.7877,-2.792,-2.7958,-2.7935,-2.8039,-2.8039,-2.803,-2.8039,-2.8001,-2.7946,-2.793,-2.7917,-2.7894,-2.7857,-2.8138,-2.8138,-2.8138,-2.7945,-2.7932,-2.8026,-2.8017,-2.8041,-2.8062,-2.8159,-2.8209,-2.8187,-2.815,-2.8044,-2.8032,-2.7941,-2.7913,-2.7876,-2.7842,-2.7772,0,0]},{"header":{"parameterUnit":"m.s-1","parameterCategory":1,"la1":30.2992,"la2":30.254,"lo1":-89.0895,"lo2":-89.0443,"dy":0.0025,"dx":0.0025,"nx":19,"ny":19,"refTime":"2026-05-01T09:00:00:Z","depth":0,"parameterNumber":3,"parameterNumberName":"V-component_of_WINDS"},"data":[0,0,0,-8.9782,-8.9787,-9.0006,-9.0007,-9.0303,-9.0306,0,0,0,0,0,0,0,0,0,0,0,-8.9731,-8.9733,-8.9782,-8.9787,-9.0006,-9.0007,-9.0302,-9.0306,0,0,0,0,0,0,0,0,0,0,0,-8.9729,-8.9732,-8.9736,-8.9788,-9.0006,-9.0007,-9.0302,-9.013,0,0,0,0,0,0,0,0,0,0,-8.9914,-8.9881,-8.9732,-8.9736,-8.979,-9.0006,-9.0007,-9.0121,-9.0141,-9.0212,0,-9.0282,0,-9.0299,-9.0327,-9.0328,0,0,0,-8.9776,-8.9865,-8.9912,-8.9736,-8.9792,-9.0006,-8.9904,-9.0132,-9.0154,-9.0237,-9.0286,-9.0297,-9.0304,-9.0329,-9.0331,-9.079,-9.0792,0,0,-8.9764,-8.9776,-8.9897,-8.9927,-8.9899,-8.9897,-8.9911,-9.0145,-9.0197,-9.0287,-9.0303,-9.0309,-9.0331,-9.0334,-9.0787,-9.079,0,0,0,-8.9737,-8.9768,-8.9809,-8.9916,-8.9954,-8.9904,-8.992,-9.0186,-9.0199,-9.0306,-9.0313,-9.0333,-9.0337,-9.0784,-9.0788,-9.0935,0,0,0,-8.9729,-8.9752,-8.9805,-8.9814,-8.995,-9.0074,-8.9957,-9.0183,-9.0209,-9.0311,-9.0333,-9.034,-9.0781,-9.0786,-9.0925,-9.1002,0,0,0,-8.9711,-8.975,-8.9787,-8.9814,-8.991,-9.007,-9.0096,-9.0188,-9.0214,-9.0328,-9.0341,-9.0779,-9.0785,-9.0916,-9.0987,-9.1128,0,0,0,-8.9695,-8.9911,-8.9789,-9.0033,-8.9908,-9.016,-9.0094,-9.028,-9.0396,-9.0335,-9.0782,-9.0788,-9.0913,-9.0977,-9.1118,-9.125,-9.1306,0,0,-8.9974,-8.9945,-9.0088,-8.9985,-9.0263,-9.0126,-9.0424,-9.0516,-9.0512,-9.0696,-9.0707,-9.0928,-9.0985,-9.1126,-9.1614,-9.1659,0,0,0,-9.018,-9.0283,-9.0354,-9.0467,-9.0546,-9.0619,-9.0665,-9.0699,-9.0855,-9.0611,-9.1016,-9.105,-9.1132,-9.1194,-9.1232,-9.1301,-9.0817,-9.0816,-9.0816,-9.0592,-9.0581,-9.0816,-9.0832,-9.0942,-9.0989,-9.1077,-9.113,-9.1083,-9.1179,-9.1234,-9.1532,-9.1605,-9.1634,-9.1707,-9.1301,-9.1302,-9.1302,-9.1303,-9.1,-9.1144,-9.1081,-9.1287,-9.1273,-9.1443,-9.1496,-9.1458,-9.1613,-9.1489,-9.156,-9.1427,-9.1683,-9.1746,-9.1314,-9.1312,-9.1311,-9.1309,-9.1309,-9.1269,-9.1337,-9.1378,-9.1543,-9.167,-9.1676,-9.183,-9.181,-9.1791,-9.1862,-9.1918,-9.1915,-9.1911,-9.189,-9.1891,-9.1892,-9.1893,-9.1894,-9.1894,-9.1533,-9.1574,-9.1709,-9.1813,-9.1884,-9.1975,-9.2025,-9.2093,-9.2163,-9.2135,-9.2136,-9.208,-9.1711,-9.1619,-9.191,-9.1908,-9.1905,-9.1904,-9.1903,-9.1952,-9.1855,-9.2063,-9.2135,-9.2256,-9.2384,-9.2357,-9.2498,-9.2551,-9.2627,-9.2556,-9.2287,-9.2254,-9.2224,-9.2148,-9.2558,-9.2558,-9.2558,-9.2558,-9.218,-9.2163,-9.2372,-9.2489,-9.26,-9.2598,-9.2831,-9.2872,-9.2897,-9.2929,-9.2866,-9.2763,-9.2733,-9.2718,-9.2677,-9.2606,-9.3124,-9.3124,-9.3125,-9.2438,-9.2431,-9.2635,-9.2664,-9.2757,-9.2836,-9.3055,-9.3188,-9.3196,-9.3147,-9.2953,-9.293,-9.2763,-9.271,-9.2656,-9.2593,-9.2462,0,0]}]]